User: anonymous   Login
Location: Bremen
(53.0793°N, 8.8017°E)
Time: 00:01:36
(UTC+02:00)
Language:

STRAND 1 - Orbit

View from above orbital plane
View from above orbital plane
View from above satellite
View from above satellite

Ground track
Ground track

The orbit data is extracted from the following two-line orbital elements,

1 39090U 13009E   24148.09594917  .00000563  00000-0  20818-3 0  9993
2 39090  98.3815 336.9645 0008045 322.2112  37.8508 14.36062129589235
Epoch (UTC): 27 May 2024 02:18:10
Eccentricity: 0.0008045
inclination: 98.3815°
perigee height: 766 km
apogee height: 777 km
right ascension of ascending node: 336.9645°
argument of perigee: 322.2112°
revolutions per day: 14.36062129
mean anomaly at epoch: 37.8508°
orbit number at epoch: 58923

The dashed part of the orbit path shows where the satellite is in the earth's shadow,  

DLR